Pluckemin, NJ

11:57 PM EST on February 06, 2016 (GMT -0500)
Somerset

Weather History for KSMQ - February, 2014

Change the Weather History Date:

Tuesday, February 4, 2014

  Actual Average Record
Temperature  
Mean Temperature 22 °F -  
Max Temperature 33 °F 38 °F 62 °F (1991)
Min Temperature 10 °F 19 °F -3 °F (1985)
Degree Days  
Heating Degree Days 44    
Moisture  
Dew Point 19 °F    
Average Humidity 82    
Maximum Humidity 96    
Minimum Humidity 59    
Precipitation  
Precipitation 0.00 in - - ()
Sea Level Pressure  
Sea Level Pressure 30.39 in    
Wind  
Wind Speed 3 mph (NW)    
Max Wind Speed 6 mph    
Max Gust Speed -    
Visibility 8 miles    
Events      
Averages and records for this station are not official NWS values.
T = Trace of Precipitation, MM = Missing Value Source: NWS Daily Summary

Daily Weather History Graph

Daily Weather History Graph

Search for Another Location

Airport or City:

Trip Planner

Search our weather history database for the weather conditions in past years. The results will help you decide how hot, cold, wet, or windy it might be!

Date:

Astronomy

Feb. 04, 2014 Rise Set
Actual Time 7:05 AM EST 5:20 PM EST
Civil Twilight 6:36 AM EST 5:48 PM EST
Nautical Twilight 6:04 AM EST 6:21 PM EST
Astronomical Twilight 5:32 AM EST 6:53 PM EST
Moon 9:40 AM EST (2/4) 11:13 PM EST (2/4)
Length of Visible Light 11h 12m
Length of Day
10h 14m
Waxing Crescent, 29% of the Moon is Illuminated
Feb 4
Waxing Crescent
Feb 6
First Quarter
Feb 14
Full
Feb 22
Last Quarter
Mar 1
New

Hourly Weather History & Observations

Time (EST) Temp. Windchill Dew Point Humidity Pressure Visibility Wind Dir Wind Speed Gust Speed Precip Events Conditions
12:53 AM 19.9 °F 12.1 °F 17.1 °F 89% 30.33 in 8.0 mi NW 5.8 mph - N/A   Clear
1:53 AM 19.0 °F - 16.0 °F 88% 30.37 in 8.0 mi Calm Calm - N/A   Mostly Cloudy
2:53 AM 19.9 °F 13.4 °F 16.0 °F 85% 30.37 in 8.0 mi NW 4.6 mph - N/A   Overcast
3:53 AM 17.1 °F 10.0 °F 15.1 °F 92% 30.37 in 7.0 mi NW 4.6 mph - N/A   Clear
4:53 AM 16.0 °F 10.4 °F 12.9 °F 88% 30.40 in 8.0 mi NW 3.5 mph - N/A   Clear
5:53 AM 12.9 °F 6.9 °F 10.0 °F 88% 30.41 in 7.0 mi NW 3.5 mph - N/A   Clear
6:53 AM 10.9 °F - 9.0 °F 92% 30.42 in 8.0 mi Calm Calm - N/A   Clear
7:53 AM 12.0 °F 5.9 °F 9.0 °F 88% 30.45 in 6.0 mi NW 3.5 mph - N/A   Clear
8:53 AM 18.0 °F - 16.0 °F 92% 30.46 in 6.0 mi Calm Calm - N/A   Clear
9:53 AM 25.0 °F 20.7 °F 17.1 °F 72% 30.48 in 9.0 mi NW 3.5 mph - N/A   Partly Cloudy
10:53 AM 28.0 °F 22.8 °F 19.0 °F 69% 30.47 in 10.0 mi NNW 4.6 mph - N/A   Clear
11:53 AM 30.9 °F - 21.0 °F 67% 30.44 in 10.0 mi Calm Calm - N/A   Clear
12:53 PM 32.0 °F - 21.9 °F 66% 30.40 in 10.0 mi Calm Calm - N/A   Clear
1:53 PM 32.0 °F 28.7 °F 23.0 °F 69% 30.42 in 10.0 mi South 3.5 mph - N/A   Partly Cloudy
2:53 PM 33.1 °F - 19.9 °F 59% 30.38 in 10.0 mi Calm Calm - N/A   Clear
3:53 PM 32.0 °F 28.7 °F 21.9 °F 66% 30.37 in 10.0 mi Variable 3.5 mph - N/A   Clear
4:53 PM 30.9 °F - 23.0 °F 72% 30.38 in 10.0 mi Calm Calm - N/A   Clear
5:53 PM 28.9 °F - 25.0 °F 85% 30.39 in 10.0 mi Calm Calm - N/A   Clear
6:53 PM 26.1 °F - 25.0 °F 96% 30.37 in 5.0 mi Calm Calm - N/A   Clear
7:53 PM 26.1 °F - 25.0 °F 96% 30.37 in 7.0 mi Calm Calm - N/A   Clear
8:53 PM 28.0 °F 24.2 °F 25.0 °F 88% 30.35 in 6.0 mi North 3.5 mph - N/A   Overcast
9:53 PM 28.9 °F - 26.1 °F 89% 30.34 in 7.0 mi Calm Calm - N/A   Overcast
10:53 PM 30.0 °F 26.5 °F 26.1 °F 85% 30.29 in 8.0 mi ENE 3.5 mph - N/A   Overcast
11:53 PM 30.0 °F - 25.0 °F 82% 30.24 in 7.0 mi Calm Calm - N/A   Overcast